User: anonymous   Login
Location: Unspecified
(0.0000°N, 0.0000°E)
Time: 14:05:29
(UTC+00:00)
Language:

CARTOSAT 2A - Orbit

View from above orbital plane
View from above orbital plane
View from above satellite
View from above satellite

Ground track
Ground track

The orbit data is extracted from the following two-line orbital elements,

1 32783U 08021A   18320.21897854  .00000219  00000-0  36774-4 0  9995
2 32783  97.8586  16.4844 0014578  85.4600 274.8282 14.78721310569549
Epoch (UTC): 16 November 2018 05:15:19
Eccentricity: 0.0014578
inclination: 97.8586°
perigee height: 623 km
apogee height: 643 km
right ascension of ascending node: 16.4844°
argument of perigee: 85.4600°
revolutions per day: 14.78721310
mean anomaly at epoch: 274.8282°
orbit number at epoch: 56954

The dashed part of the orbit path shows where the satellite is in the earth's shadow,  

DLR